Find Starlink 35814

NORAD ID: 66576 Int'l Des: 2025-268 Owner: SPXS Country: US Constellation: starlink operational
LEOCIRCULAR

リアルタイム位置

3D地球を読み込み中...

Starlink 35814について

説明を読み込み中...

次回通過

Passes for default location (London). Set your location on the main map for personalized predictions.

高度履歴

Loading altitude history...

軌道要素

1 66576U 25268V 26106.12380066 .00010331 00000-0 38433-3 0 9996
2 66576 43.0012 135.7543 0001656 282.3745 77.6922 15.27588760 23680
Epoch: Apr 16, 2026 • Age: 11 hours

現在のステータス

高度 483.2 km
速度 7.63 km/s
衛星直下点 -5.54°S, 73.71°E
打ち上げ日 Nov 21, 2025
運用期間 0.3 years
タイプ internet

技術仕様

分類 Payload
質量 575.00 kg
乾燥質量 530.00 kg
総質量 575.00 kg
長さ 0.30 m
直径 4.10 m
スパン 29.00 m
形状 Box + pan
製造者 SPXS
バスタイプ Starlink V2MO
フェーズステータス In Orbit
所有者/国 SPXS/US

Most Searched